Wind_Speed
38 38 39 39 40 39 39 37 37 36 34 34 35 35 36 36 37 36 36 38 37 37 33 32 32 31 34 34 36 38 39 40 41 40 40 41 43 43 47 45 46 47 46 47 43 48 55 42 38 43 44 46 37 35
36 37 36 37 38 38 38 36 35 34 33 33 33 34 35 35 36 36 34 36 36 36 32 31 27 29 32 36 35 37 38 37 35 38 38 42 43 45 45 45 41 45 42 45 47 47 45 44 44 45 48 49 37 40
35 34 34 34 35 35 34 33 32 31 31 31 32 33 33 33 34 35 31 32 33 34 34 26 23 28 28 34 37 34 31 33 35 34 36 38 40 40 42 42 42 40 42 47 52 46 46 47 52 50 50 49 38 39
36 35 34 34 35 34 33 32 32 31 31 32 31 31 30 31 32 32 29 30 30 32 33 22 23 21 29 30 29 28 30 32 32 31 35 38 40 43 43 46 47 39 39 42 50 48 51 52 49 50 48 50 51 47
39 38 37 35 35 33 32 33 34 32 31 31 30 30 30 30 31 31 29 26 28 31 30 24 19 25 27 28 28 29 31 31 33 37 37 37 34 36 36 43 35 35 42 46 46 41 48 45 40 46 49 49 48 48
43 42 40 39 37 35 34 33 32 31 31 31 31 30 31 32 32 31 27 27 28 29 32 31 22 23 23 25 27 30 30 33 34 32 31 28 28 32 34 31 23 29 35 39 40 40 42 39 40 40 43 44 47 49
46 45 43 42 40 38 37 35 33 32 31 31 29 29 30 31 31 29 23 25 25 26 30 33 28 18 21 25 29 30 26 25 24 27 27 26 25 31 36 30 23 28 31 36 37 41 42 41 42 40 44 41 46 47
47 46 45 45 43 41 39 37 36 35 33 30 28 28 28 28 28 25 23 23 26 25 24 31 29 15 18 24 23 22 22 22 25 25 24 22 25 26 24 22 22 24 28 30 33 37 39 38 39 38 40 48 52 50
50 48 47 46 44 43 42 40 39 38 35 32 31 30 28 27 25 19 25 23 26 25 27 31 23 21 20 20 18 17 18 19 21 20 20 20 15 16 20 22 26 26 27 27 30 34 39 40 41 42 42 36 39 35
54 52 50 48 46 44 43 41 40 39 38 36 35 33 29 27 25 25 24 25 29 30 34 25 22 22 20 18 16 16 16 13 9 10 13 14 14 22 28 29 29 30 33 34 38 41 43 41 45 42 38 36 33 32
55 54 53 50 48 46 44 41 39 38 39 38 37 35 31 28 28 27 28 30 33 33 25 21 21 19 19 18 15 15 15 16 14 12 17 17 15 25 26 28 31 34 38 42 47 49 48 44 33 26 23 27 29 30
55 57 55 52 50 48 46 43 42 41 38 37 36 36 34 31 31 32 33 36 36 27 24 19 18 19 19 20 20 18 18 18 17 16 19 18 23 28 28 27 31 35 40 41 41 43 42 34 25 22 23 26 28 20
56 54 54 54 52 50 48 45 42 38 39 37 36 38 37 36 37 37 37 37 26 18 19 17 18 20 18 20 23 22 22 22 21 23 23 24 28 32 32 32 35 40 42 44 40 33 23 19 20 21 22 23 19 25
58 54 52 54 54 51 49 48 45 42 41 41 39 40 40 41 42 38 34 27 23 19 19 23 22 23 22 23 26 27 27 26 26 28 31 34 36 33 33 31 34 39 43 35 25 25 22 17 15 14 16 15 22 19
59 56 53 51 53 53 51 49 47 46 45 45 43 42 40 41 42 39 33 26 26 25 22 22 23 22 24 30 29 30 31 31 32 34 37 40 40 33 31 32 33 34 36 28 24 24 19 15 10 8 13 15 14 9
60 57 53 49 50 53 51 49 48 46 46 47 45 41 37 44 38 37 31 27 27 26 25 25 23 22 24 26 28 29 30 32 33 30 29 28 29 27 28 32 32 31 27 19 19 18 11 11 9 5 8 10 16 14
59 57 53 49 48 51 50 51 49 48 48 50 44 40 38 44 36 23 30 28 27 30 28 29 28 25 25 26 28 29 28 25 25 25 27 27 26 29 31 33 31 26 20 10 9 13 14 14 15 13 12 11 13 12
55 54 53 49 48 50 52 50 47 48 49 48 41 39 36 41 37 30 32 30 27 23 21 23 25 25 24 23 20 21 23 24 26 28 31 32 29 26 23 22 19 17 11 7 5 8 11 13 13 11 10 10 8 8
50 54 53 50 50 52 51 48 46 46 46 44 39 39 37 33 31 28 28 28 28 26 25 26 24 20 20 21 23 23 24 27 31 31 31 30 26 24 22 20 15 12 9 6 4 4 7 10 11 10 9 9 10 9
52 53 52 51 53 54 51 46 44 44 45 41 39 37 39 36 31 27 27 28 30 29 28 23 19 19 21 22 24 26 28 27 26 23 22 22 20 22 18 13 11 11 11 11 9 6 8 9 11 13 13 12 12 11
54 53 53 53 54 49 45 42 42 42 42 39 38 36 38 38 35 33 30 30 31 27 23 21 22 23 23 23 25 23 23 22 18 16 13 11 9 9 9 9 10 11 10 10 11 10 13 14 16 18 18 17 15 14
53 53 51 49 46 43 43 35 33 34 36 36 35 33 34 38 37 34 32 32 29 25 23 21 21 23 24 24 21 21 20 16 15 15 13 9 8 8 9 10 11 12 12 13 14 16 17 18 17 16 15 15 15 15
53 50 48 46 44 40 28 30 36 39 35 32 30 31 33 37 38 35 34 30 25 24 23 23 23 23 24 21 19 18 14 12 11 11 9 8 8 9 9 8 9 11 12 15 16 18 18 17 16 14 14 13 11 9
54 53 54 47 41 35 29 34 35 35 32 31 29 29 30 31 34 36 33 30 29 27 26 25 24 22 20 17 15 12 10 9 7 6 3 3 3 4 6 8 10 12 13 14 15 15 14 14 13 12 8 7 7 7
63 59 50 40 35 31 33 33 34 33 31 30 29 29 28 30 31 30 31 32 31 30 29 27 23 19 15 14 11 11 11 8 6 5 4 4 5 6 7 8 10 11 12 13 14 14 11 7 7 8 8 8 7 8
58 55 49 39 35 37 33 32 32 30 29 28 27 27 28 27 26 26 26 26 26 26 25 22 20 17 16 14 13 12 8 6 6 5 5 5 5 7 9 11 12 14 12 10 8 7 7 8 8 8 7 8 9 11
49 57 49 43 40 34 29 27 26 26 26 25 25 25 25 24 22 22 22 21 22 23 21 20 19 19 18 15 12 10 10 10 10 10 10 10 10 10 12 10 7 8 8 7 8 8 7 7 7 7 9 11 13 15
41 52 44 38 36 30 29 30 29 28 27 26 25 25 22 20 19 20 20 21 21 21 21 21 20 18 16 16 15 14 14 13 13 13 13 14 14 14 11 9 8 8 8 8 8 8 8 8 8 10 12 14 16 18
50 46 36 32 34 29 29 29 27 25 23 21 21 20 19 20 22 22 22 22 22 21 20 20 18 16 17 17 16 16 16 15 15 16 17 17 16 13 10 9 10 10 10 9 9 10 9 9 11 13 15 16 18 21
47 41 33 28 29 25 22 21 22 25 24 24 24 25 25 23 23 23 22 23 22 22 21 20 19 19 19 18 18 19 18 18 19 20 19 15 12 11 11 12 11 10 10 10 11 10 10 12 14 16 17 18 20 23
41 29 28 25 24 22 24 25 26 27 26 25 27 26 25 24 22 21 21 21 22 22 21 20 18 18 19 19 19 18 18 15 10 9 9 10 11 12 12 12 12 12 12 11 10 11 13 14 16 18 19 20 22 25
38 32 26 22 21 23 24 24 24 24 25 25 25 25 26 26 26 25 23 20 19 21 21 20 21 21 21 19 17 13 11 10 10 11 12 12 12 12 12 12 13 13 12 12 13 14 15 17 19 20 20 21 24 27
32 29 27 27 27 24 22 22 22 21 20 20 21 22 23 24 23 22 22 22 22 24 25 23 21 19 17 14 12 12 12 13 12 12 12 11 11 12 12 13 13 13 14 15 15 17 18 20 21 21 21 22 25 28
Wind_Direction
210 212 213 212 213 216 218 221 224 227 228 230 233 235 237 239 241 240 240 244 246 244 241 243 247 249 250 253 252 255 260 263 266 267 269 270 272 271 273 276 275 275 275 275 273 270 274 282 275 270 279 283 280 281
207 208 208 208 211 213 216 218 221 224 226 228 230 233 235 236 240 242 238 240 243 245 242 246 247 250 248 251 255 258 259 261 264 266 269 272 273 274 275 278 277 277 280 276 272 279 282 278 283 282 280 274 271 274
205 204 205 207 209 211 212 213 216 220 221 224 227 230 233 235 237 240 239 241 241 244 244 240 245 250 254 253 256 262 263 262 265 267 269 272 275 278 285 288 284 284 277 272 276 281 283 276 273 277 279 278 275 283
207 207 207 209 211 211 213 216 217 218 221 224 226 227 229 232 235 239 239 242 246 248 248 244 249 249 254 261 263 263 261 262 262 267 272 275 279 282 285 282 279 285 278 279 276 281 277 269 272 278 275 271 272 276
210 210 210 210 213 212 214 216 217 218 220 224 225 226 228 231 234 237 238 241 244 248 247 244 249 242 243 245 247 253 256 261 266 269 274 280 285 285 284 281 289 291 284 283 283 284 283 274 275 277 275 275 274 274
214 213 212 211 212 213 213 215 217 218 220 222 224 226 229 231 233 237 238 238 242 247 248 248 237 230 233 238 246 249 258 260 266 268 279 285 284 283 284 288 307 294 281 280 289 292 294 285 286 282 277 273 271 275
215 215 214 213 213 213 213 213 216 217 219 220 222 224 227 230 232 234 232 237 243 247 249 252 248 227 241 252 253 257 254 257 264 274 279 280 280 290 289 297 280 289 287 289 293 290 289 289 291 275 277 276 272 271
215 216 215 215 214 215 215 215 215 217 219 219 221 224 227 231 232 232 232 226 226 223 245 255 259 262 256 252 250 246 250 254 272 275 275 280 277 287 297 304 307 301 294 291 291 293 297 297 295 290 283 277 274 274
215 216 215 215 214 215 215 215 216 217 219 220 222 225 227 229 230 225 230 223 217 221 242 247 260 261 254 246 241 247 259 262 264 273 265 271 291 307 307 310 303 297 298 298 300 299 300 301 299 290 289 281 284 280
216 215 214 214 214 214 214 215 216 217 219 219 222 224 226 228 224 223 219 213 213 220 237 247 253 263 248 230 241 252 240 242 245 248 266 283 317 305 298 299 302 302 299 298 299 299 297 293 297 289 288 288 300 301
217 215 214 213 212 213 212 213 214 216 219 220 220 222 223 224 222 214 211 216 221 228 236 240 251 242 226 236 247 232 232 240 253 260 275 292 310 301 305 304 303 304 306 307 306 305 303 301 294 290 288 293 298 295
216 216 214 212 212 213 212 213 215 216 218 220 221 220 220 219 207 210 218 220 225 231 233 235 243 225 229 242 241 240 249 254 265 276 291 306 302 301 305 308 315 319 316 312 313 310 306 299 299 307 311 302 295 289
213 213 212 212 211 212 212 212 213 214 217 219 218 217 217 213 203 214 217 223 224 232 231 227 233 232 236 247 248 250 254 262 269 278 286 303 302 300 300 300 310 317 319 320 315 311 311 314 317 310 308 301 294 299
210 210 210 210 211 210 211 212 213 215 218 218 218 217 215 209 205 213 222 222 219 231 229 227 229 233 235 242 249 253 257 266 271 275 291 290 299 297 301 302 307 313 321 319 315 320 324 318 316 311 305 310 319 310
208 208 207 207 208 208 210 211 212 215 217 217 218 217 217 209 207 215 223 220 223 229 233 235 238 236 236 241 248 256 265 274 282 289 288 286 291 291 294 301 311 311 323 312 319 327 332 328 326 354 340 2 355 346
205 205 205 205 204 205 206 208 210 212 214 215 217 218 215 209 213 221 219 218 223 230 236 239 245 249 250 252 257 265 273 279 281 283 284 287 287 288 294 299 306 307 320 324 332 336 324 315 344 2 2 12 25 47
202 200 201 201 202 202 202 206 208 210 212 212 214 214 213 210 204 202 216 216 223 231 240 247 253 259 264 263 269 274 278 277 280 283 288 290 291 296 299 297 302 302 311 300 360 35 47 62 57 45 36 29 48 47
197 197 197 196 197 198 202 204 206 209 210 210 210 211 217 215 215 215 217 224 228 235 240 246 251 254 260 264 270 272 274 277 282 285 287 289 292 294 288 300 306 304 279 284 4 43 42 50 57 55 60 52 55 54
190 192 191 191 193 195 198 201 204 207 206 207 206 211 211 211 213 212 212 215 224 228 226 229 237 248 253 257 263 271 283 288 288 287 287 285 280 274 283 294 300 268 260 297 342 7 21 29 23 24 30 32 44 41
185 185 186 187 189 194 196 196 199 203 205 206 207 210 208 206 204 202 205 208 215 223 226 231 241 246 254 264 274 284 287 287 293 298 296 288 272 263 266 274 248 238 257 278 291 315 344 346 341 341 345 349 351 351
179 180 183 185 188 191 192 193 198 202 204 206 206 209 208 207 206 204 201 204 208 216 226 240 247 254 264 275 287 287 287 289 286 287 290 286 272 249 247 249 229 230 249 272 297 312 318 321 319 321 325 329 335 337
175 177 180 181 180 182 185 180 201 196 206 206 209 209 210 210 209 210 213 217 222 228 237 244 248 257 269 284 285 286 287 277 280 288 289 272 252 252 238 237 244 252 268 286 294 299 303 304 305 308 312 315 317 319
171 170 170 168 171 173 176 205 200 202 202 203 205 208 212 213 214 216 219 222 226 232 236 240 252 266 278 280 283 280 272 271 274 271 259 249 235 231 240 251 259 265 269 275 276 278 280 284 290 297 300 303 303 304
162 161 157 153 160 163 185 201 199 199 197 201 204 209 212 213 215 218 220 221 226 231 237 246 260 268 270 277 272 255 251 246 241 230 221 220 210 230 242 248 253 258 260 263 267 272 278 286 292 295 292 298 308 310
155 157 158 154 153 169 197 194 193 193 196 201 202 208 208 215 217 219 221 225 229 234 241 248 252 254 262 261 246 232 218 206 209 216 222 227 236 236 244 248 254 258 260 264 271 277 278 273 280 286 292 293 289 301
166 170 169 167 175 191 187 186 188 190 196 198 201 202 206 213 214 215 219 220 223 225 228 231 236 241 243 240 234 224 220 228 239 240 260 277 270 272 275 273 267 268 267 259 254 265 275 280 279 279 277 276 286 301
176 177 176 184 191 187 186 187 188 192 198 199 198 204 208 210 205 207 210 211 212 213 215 221 229 237 241 243 245 237 236 240 243 250 267 275 277 278 283 269 234 225 236 253 263 271 275 273 272 278 288 296 302 306
183 178 182 187 187 184 186 191 193 194 198 198 199 201 202 200 198 208 207 206 205 207 215 222 231 238 243 243 243 241 245 250 259 267 272 275 276 278 260 235 240 255 271 267 270 277 283 282 288 292 290 292 295 302
177 179 181 185 187 190 192 192 197 200 200 200 201 201 197 201 206 210 210 210 211 215 222 228 235 237 242 244 249 250 248 247 253 260 263 267 273 258 246 250 263 268 264 265 276 283 282 285 293 293 294 297 302 308
183 183 185 183 189 196 196 196 196 195 197 197 198 199 201 205 208 209 209 211 213 215 220 226 230 229 231 235 240 240 242 253 260 263 261 251 242 244 252 261 262 262 264 272 278 278 285 292 300 302 300 302 306 311
186 188 193 200 205 208 207 203 199 200 202 203 205 206 210 214 216 217 218 216 215 219 223 226 226 227 226 226 231 242 253 255 248 237 230 235 244 252 257 258 261 262 268 274 274 286 292 296 303 304 302 303 307 312
196 201 205 206 203 197 196 199 204 208 212 217 219 220 221 222 223 221 222 220 218 223 225 224 222 219 221 229 234 231 228 231 237 241 244 248 252 254 258 259 261 266 270 272 278 290 294 298 303 306 306 306 309 314
199 199 199 194 192 194 198 203 208 212 217 221 222 221 222 221 220 222 223 222 218 218 221 221 218 219 219 215 216 226 236 239 242 247 251 253 255 258 262 265 269 272 273 278 283 290 297 302 305 306 305 305 309 313
Height
5420 5427 5435 5442 5449 5456 5463 5470 5477 5482 5487 5493 5498 5503 5507 5510 5514 5520 5523 5525 5530 5533 5538 5541 5542 5544 5544 5546 5548 5548 5550 5547 5548 5550 5551 5551 5551 5551 5550 5553 5550 5546 5544 5542 5541 5537 5531 5545 5544 5537 5538 5535 5536 5534
5413 5420 5427 5435 5442 5448 5455 5461 5468 5474 5479 5485 5490 5494 5498 5502 5506 5510 5515 5517 5519 5524 5531 5531 5536 5534 5534 5535 5539 5538 5540 5540 5541 5539 5539 5537 5538 5537 5539 5539 5540 5535 5537 5533 5528 5527 5530 5530 5529 5527 5523 5519 5524 5521
5407 5414 5421 5428 5435 5441 5448 5454 5460 5466 5472 5477 5482 5487 5491 5494 5498 5502 5506 5509 5513 5516 5520 5528 5526 5525 5527 5526 5527 5532 5533 5531 5531 5529 5529 5529 5527 5527 5526 5528 5526 5528 5526 5519 5517 5522 5519 5516 5512 5513 5512 5507 5510 5509
5400 5407 5414 5421 5428 5435 5441 5447 5453 5458 5464 5470 5475 5479 5483 5487 5490 5494 5499 5502 5505 5509 5511 5520 5517 5519 5517 5520 5522 5524 5524 5523 5523 5523 5520 5519 5520 5520 5520 5516 5513 5521 5514 5511 5505 5508 5503 5501 5501 5501 5500 5497 5495 5496
5393 5400 5407 5414 5421 5428 5434 5440 5446 5451 5457 5463 5468 5472 5477 5480 5484 5488 5493 5497 5499 5501 5505 5508 5510 5511 5512 5514 5514 5515 5515 5515 5515 5513 5513 5514 5512 5509 5509 5504 5505 5512 5503 5495 5491 5495 5484 5485 5494 5488 5483 5484 5481 5478
5385 5392 5400 5407 5414 5421 5428 5434 5440 5445 5450 5456 5461 5465 5470 5474 5478 5482 5488 5491 5491 5494 5495 5497 5505 5505 5505 5507 5508 5507 5508 5507 5507 5507 5507 5506 5505 5500 5497 5497 5501 5496 5489 5485 5482 5482 5476 5478 5478 5477 5468 5471 5469 5464
5376 5384 5392 5399 5406 5413 5420 5427 5433 5439 5444 5449 5454 5458 5463 5467 5471 5477 5484 5484 5486 5487 5488 5488 5492 5500 5500 5500 5499 5500 5500 5501 5501 5500 5500 5498 5497 5494 5490 5491 5487 5483 5481 5478 5473 5468 5468 5467 5461 5462 5456 5455 5452 5451
5366 5374 5382 5390 5398 5405 5412 5419 5426 5431 5437 5443 5447 5452 5456 5460 5466 5472 5474 5476 5479 5481 5483 5482 5484 5493 5492 5492 5493 5494 5494 5494 5495 5494 5493 5492 5490 5488 5485 5483 5479 5476 5472 5470 5466 5460 5456 5456 5450 5447 5444 5440 5437 5437
5356 5365 5374 5382 5390 5397 5404 5411 5418 5424 5430 5435 5440 5445 5449 5455 5460 5465 5465 5469 5473 5476 5475 5476 5482 5484 5485 5486 5487 5488 5488 5488 5489 5488 5487 5486 5485 5483 5480 5477 5473 5470 5466 5464 5460 5454 5449 5444 5439 5434 5430 5428 5423 5423
5346 5355 5365 5373 5381 5389 5396 5403 5410 5416 5422 5427 5433 5438 5444 5449 5453 5456 5460 5463 5466 5466 5467 5474 5478 5478 5479 5480 5481 5483 5483 5483 5483 5484 5483 5482 5482 5478 5473 5470 5467 5464 5460 5455 5450 5446 5440 5434 5427 5423 5418 5415 5410 5408
5334 5345 5355 5364 5372 5381 5388 5395 5402 5408 5413 5419 5425 5432 5438 5442 5445 5449 5454 5457 5458 5460 5466 5471 5472 5473 5474 5476 5476 5477 5478 5478 5479 5481 5478 5478 5478 5473 5469 5465 5461 5457 5452 5446 5438 5430 5423 5416 5412 5411 5410 5406 5403 5401
5322 5334 5345 5354 5363 5372 5380 5387 5394 5401 5407 5413 5420 5424 5430 5434 5438 5443 5446 5449 5451 5457 5461 5465 5467 5468 5469 5471 5472 5473 5474 5474 5474 5474 5473 5473 5471 5467 5464 5460 5456 5450 5444 5436 5428 5420 5414 5408 5405 5403 5401 5399 5397 5394
5311 5322 5333 5343 5353 5363 5371 5379 5386 5394 5400 5405 5410 5415 5421 5425 5430 5434 5438 5442 5451 5456 5458 5461 5462 5463 5465 5466 5467 5468 5469 5469 5469 5468 5467 5467 5464 5461 5458 5455 5450 5444 5436 5428 5419 5411 5406 5403 5401 5399 5396 5394 5392 5390
5300 5311 5321 5332 5343 5354 5362 5370 5378 5385 5391 5397 5401 5407 5411 5417 5424 5430 5435 5442 5446 5450 5451 5454 5456 5458 5460 5461 5462 5463 5464 5464 5463 5463 5462 5460 5457 5455 5452 5449 5444 5438 5431 5422 5415 5408 5403 5400 5397 5396 5394 5393 5390 5385
5289 5300 5312 5323 5333 5343 5352 5361 5369 5376 5382 5387 5393 5398 5407 5414 5420 5424 5430 5437 5440 5443 5446 5449 5451 5454 5455 5455 5457 5458 5457 5457 5457 5457 5454 5452 5450 5448 5446 5443 5438 5432 5426 5419 5412 5405 5400 5398 5397 5396 5395 5392 5388 5384
5278 5291 5304 5314 5324 5333 5343 5352 5359 5367 5372 5379 5386 5395 5402 5409 5415 5419 5426 5431 5434 5437 5440 5443 5446 5448 5449 5450 5451 5452 5451 5452 5450 5448 5446 5444 5442 5441 5439 5436 5432 5427 5423 5417 5412 5405 5401 5399 5398 5397 5396 5393 5391 5387
5268 5283 5295 5306 5316 5325 5334 5342 5350 5358 5364 5371 5382 5390 5396 5404 5411 5415 5420 5425 5428 5432 5435 5437 5439 5441 5443 5443 5445 5445 5445 5444 5442 5440 5439 5438 5436 5434 5432 5429 5426 5423 5420 5417 5412 5407 5403 5400 5398 5398 5397 5396 5394 5393
5263 5276 5287 5298 5309 5318 5326 5335 5344 5351 5358 5368 5378 5385 5391 5398 5405 5410 5415 5420 5424 5427 5430 5432 5434 5435 5437 5438 5439 5438 5437 5436 5435 5433 5432 5430 5429 5427 5425 5423 5421 5419 5417 5415 5412 5408 5406 5404 5402 5401 5400 5398 5397 5396
5258 5269 5282 5293 5303 5312 5322 5331 5340 5346 5356 5364 5373 5379 5386 5393 5399 5404 5409 5414 5419 5423 5425 5427 5429 5432 5433 5432 5432 5432 5431 5429 5427 5425 5423 5421 5420 5420 5419 5418 5417 5416 5414 5413 5411 5408 5407 5405 5404 5403 5401 5399 5397 5397
5253 5266 5278 5288 5298 5307 5318 5328 5335 5342 5351 5361 5368 5374 5381 5388 5394 5399 5404 5409 5413 5416 5419 5423 5425 5425 5426 5426 5426 5425 5423 5421 5419 5417 5414 5411 5410 5411 5413 5413 5413 5412 5410 5410 5409 5408 5406 5405 5403 5402 5401 5399 5398 5397
5250 5263 5274 5285 5295 5307 5318 5327 5333 5340 5348 5355 5363 5368 5376 5383 5389 5394 5399 5403 5407 5411 5415 5417 5418 5419 5420 5420 5419 5417 5415 5414 5413 5412 5409 5407 5406 5406 5407 5408 5409 5408 5407 5407 5406 5405 5404 5403 5402 5400 5398 5397 5396 5395
5253 5264 5276 5287 5298 5309 5319 5326 5332 5339 5345 5353 5359 5365 5371 5377 5383 5388 5393 5397 5401 5406 5408 5410 5412 5413 5413 5413 5412 5410 5409 5408 5407 5406 5404 5404 5403 5403 5404 5404 5404 5405 5405 5404 5403 5402 5402 5401 5400 5399 5398 5396 5395 5393
5255 5267 5279 5288 5300 5310 5321 5325 5329 5335 5343 5349 5355 5361 5365 5371 5377 5382 5386 5392 5396 5399 5402 5404 5406 5407 5407 5406 5405 5405 5404 5404 5403 5402 5402 5402 5402 5402 5402 5403 5403 5403 5402 5402 5401 5400 5400 5399 5397 5396 5395 5394 5393 5391
5258 5269 5281 5289 5299 5308 5316 5318 5324 5333 5341 5346 5351 5356 5361 5366 5371 5375 5381 5387 5390 5394 5396 5399 5400 5400 5400 5400 5400 5400 5400 5400 5400 5400 5400 5400 5400 5400 5401 5401 5400 5400 5400 5399 5398 5397 5396 5395 5394 5393 5393 5392 5390 5389
5264 5275 5283 5289 5296 5306 5310 5316 5323 5331 5338 5343 5348 5352 5357 5360 5365 5372 5376 5380 5384 5387 5390 5393 5394 5395 5395 5396 5396 5397 5398 5398 5398 5399 5399 5399 5399 5399 5399 5399 5398 5397 5397 5396 5395 5395 5394 5393 5392 5391 5390 5389 5388 5387
5268 5275 5281 5288 5298 5303 5311 5317 5323 5330 5335 5340 5345 5349 5353 5357 5362 5367 5370 5374 5377 5381 5384 5387 5388 5390 5391 5392 5393 5393 5394 5395 5396 5396 5396 5396 5396 5396 5396 5396 5395 5394 5394 5393 5393 5392 5392 5390 5389 5388 5388 5387 5386 5384
5269 5274 5283 5291 5297 5307 5314 5320 5325 5329 5333 5338 5343 5347 5351 5355 5360 5363 5366 5369 5372 5375 5379 5381 5383 5385 5386 5388 5390 5390 5391 5392 5394 5394 5394 5394 5394 5394 5393 5393 5392 5392 5392 5392 5391 5390 5389 5388 5387 5386 5385 5383 5381 5380
5269 5280 5289 5296 5303 5309 5313 5317 5321 5326 5331 5336 5341 5344 5349 5353 5357 5359 5362 5365 5368 5371 5374 5376 5378 5381 5383 5385 5386 5387 5388 5389 5390 5391 5391 5391 5391 5391 5390 5390 5390 5390 5389 5388 5388 5387 5386 5385 5384 5383 5381 5380 5378 5376
5277 5285 5292 5298 5303 5307 5311 5316 5322 5327 5332 5335 5339 5343 5347 5349 5351 5354 5357 5360 5363 5367 5370 5373 5376 5378 5379 5380 5382 5383 5385 5385 5386 5386 5386 5386 5386 5387 5387 5387 5386 5386 5386 5385 5384 5383 5382 5381 5380 5379 5377 5375 5373 5371
5280 5287 5293 5298 5304 5309 5313 5317 5321 5324 5327 5331 5334 5337 5340 5343 5345 5349 5352 5356 5359 5363 5366 5369 5371 5373 5375 5377 5378 5380 5381 5381 5381 5381 5381 5382 5382 5382 5383 5382 5382 5382 5382 5381 5380 5379 5378 5377 5375 5374 5372 5370 5368 5365
5285 5290 5295 5299 5303 5306 5309 5312 5316 5320 5323 5326 5329 5333 5336 5339 5342 5345 5348 5352 5355 5358 5362 5365 5367 5369 5371 5372 5374 5376 5376 5377 5377 5377 5377 5378 5379 5379 5378 5378 5378 5378 5377 5376 5376 5375 5374 5372 5370 5368 5366 5364 5361 5358
5285 5289 5293 5297 5301 5303 5307 5310 5313 5317 5320 5323 5326 5329 5332 5335 5338 5341 5344 5348 5351 5354 5357 5360 5362 5364 5366 5368 5370 5371 5372 5373 5374 5374 5375 5375 5375 5375 5374 5374 5374 5373 5373 5372 5371 5370 5368 5367 5365 5363 5360 5357 5355 5352
5284 5288 5292 5295 5298 5302 5306 5309 5311 5314 5317 5319 5321 5324 5327 5330 5333 5337 5339 5342 5346 5348 5351 5353 5357 5360 5362 5365 5366 5368 5369 5370 5370 5370 5370 5371 5371 5371 5370 5370 5369 5369 5368 5367 5366 5365 5363 5361 5358 5356 5353 5351 5348 5345